Location: Rumah Apan
(2.7833°N, 113.9500°E)
Time: 00:11:02
(UTC+00:00)

SAR-Lupe-4 - Pass Details

Date: 25 July 2021
Orbit: 480 x 486 km, 98.2° (Epoch: 19 September)

Event Time Altitude Azimuth Distance (km) Brightness Sun altitude
Rises 11:32:20 0° 26° (NNE) 2,533 7.2 -13.5°
Reaches altitude 10° 11:34:31 10° 36° (NE) 1,655 6.1 -14.0°
Maximum altitude 11:37:45 33° 101° (ESE) 833 4.2 -14.8°
Enters shadow 11:39:07 24° 144° (SE) 1,032 4.7 -15.1°
